User: anonymous   Login
Location: Unspecified
(0.0000°N, 0.0000°E)
Time: 17:21:45
(UTC+02:00)
Language:

Cosmos 1943 Rocket - Orbit

View from above orbital plane
View from above orbital plane
View from above satellite
View from above satellite

Ground track
Ground track

The orbit data is extracted from the following two-line orbital elements,

1 19120U 88039B   14297.17413411  .00000041  00000-0  42399-4 0  1905
2 19120 071.0163 208.0160 0023557 234.9866 229.9465 14.19050619369203
Epoch (UTC): 24 October 2014 04:10:45
Eccentricity: 0.0023557
inclination: 71.0163°
perigee height: 811 km
apogee height: 845 km
right ascension of ascending node: 208.0160°
argument of perigee: 234.9866°
revolutions per day: 14.19050619
mean anomaly at epoch: 229.9465°
orbit number at epoch: 36920

The dashed part of the orbit path shows where the satellite is in the earth's shadow,  

DLR